Regional Weather Roundup
Issued by NWS

Home | Current Version | Previous Version | Text Only | Print | Product List | Glossary Off
Versions: 1 2 3 4 5 6 7 8 9 10 11 12 13 14 15 16 17 18 19 20 21 22 23 24 25 26 27 28 29 30 31 32 33 34 35 36 37 38 39 40 41 42 43 44 45 46 47 48 49 50

000
ASUS43 KIND 240309
RWRIN

WEATHER ROUNDUP FOR INDIANA
NATIONAL WEATHER SERVICE INDIANAPOLIS IN
1100 PM EDT SUN JUL 23 2017

NOTE: "FAIR" INDICATES FEW OR NO CLOUDS BELOW 12,000 FEET WITH NO
SIGNIFICANT WEATHER AND/OR OBSTRUCTIONS TO VISIBILITY.

* - STATION DOES NOT REPORT WEATHER SUCH AS PRECIPITATION OR FOG.

+ - STATION NOT QUALITY CONTROLLED BY THE NATIONAL WEATHER SERVICE.
    USE DATA WITH CAUTION...ESPECIALLY DEWPOINT AND RELATIVE
    HUMIDITY OBSERVATIONS.

INZ001>003-010>013-019-020-240400-
NORTHWEST INDIANA

CITY           SKY/WX    TMP DP  RH WIND       PRES   REMARKS
GARY /AIRPORT/ CLEAR     75  66  73 N5        29.84R
KNOX *+        CLEAR     66  64  94 N5        29.82R
LA PORTE +     PTCLDY    70  67  91 NW3       29.85R
MICHIGAN CITY+ CLOUDY    70  70 100 CALM      29.84R
MONTICELLO +   CLEAR     71  63  76 CALM      29.82R
RENSSELAER +   CLEAR     72  64  78 N3        29.83R
VALPARAISO     CLEAR     72  68  87 VRB3      29.84R

$$

LMZ046-743>745-240400-
SOUTHERN LAKE MICHIGAN

STATION/POSITION TIME  TEMP    WIND        PRES    WAVE
                       AIR SEA DIR/SP/G            HT
                 (UTC) (F)     (DEG/KT/KT) (MB)    (FT)
BURNS HARBOR     0240   75     350/  8/ 11 1010.5R
MICHIGAN CITY    0240   74     360/  7/  7   N/A
5NW MICH CITY    0300   75 76  360/  8/ 10   N/A     1

$$

INZ004-005-014>016-021>024-240400-
NORTH CENTRAL INDIANA

CITY           SKY/WX    TMP DP  RH WIND       PRES   REMARKS
GOSHEN         PTCLDY    71  59  65 N5        29.81S
LOGANSPORT +   PTCLDY    68  61  77 CALM      29.83R
PERU/GRISSOM   PTCLDY    71  61  70 NW6       29.82R
ROCHESTER +    CLEAR     70  66  88 CALM      29.82F
SOUTH BEND     PTCLDY    71  66  84 N6        29.83R
WARSAW +       PTCLDY    72  64  78 N3        29.81S

$$

INZ006>009-017-018-025>027-240400-
NORTHEAST INDIANA

CITY           SKY/WX    TMP DP  RH WIND       PRES   REMARKS
AUBURN +       CLOUDY    75  64  69 NW5       29.82R
FORT WAYNE     CLOUDY    75  68  78 NW5       29.81R
HUNTINGTON +   PTCLDY    73  69  90 W5        29.82R
KENDALLVILLE + LGT RAIN  71  64  78 N3        29.82R

$$

INZ028-029-035-036-043>045-051>053-240400-
WEST CENTRAL INDIANA

CITY           SKY/WX    TMP DP  RH WIND       PRES   REMARKS
GREENCASTLE +  CLEAR     70  68  94 CALM      29.84R
LAFAYETTE      CLOUDY    71  65  81 S5        29.82R
TERRE HAUTE    CLOUDY    75  72  90 W6        29.84R

$$

INZ030>032-037>040-046>048-054>057-064-065-240400-
CENTRAL INDIANA

CITY           SKY/WX    TMP DP  RH WIND       PRES   REMARKS
CP ATTERBURY + CLEAR     70  68  94 SW9       29.82F
FRANKFORT +    PTCLDY    77  72  86 NW7       29.86R
GREENWOOD *+   CLEAR    N/A N/A N/A SW7       29.80F
INDIANAPOLIS   PTCLDY    74  72  93 W7        29.81F
-EAGLE CREEK   CLOUDY    76  68  76 CALM      29.82S
KOKOMO +         N/A     73  68  84 N5        29.84
MARION +       PTCLDY    72  66  83 N5        29.84R
MT COMFORT *+  CLEAR     73  72  94 S7        29.79F
SHELBYVILLE    CLEAR     75  70  84 S12       29.78F
ZIONSVILLE +   CLOUDY    71  69  92 CALM      29.83R

$$

INZ033-034-041-042-049-050-058-059-240400-
EAST CENTRAL INDIANA

CITY           SKY/WX    TMP DP  RH WIND       PRES   REMARKS
MUNCIE         CLEAR     73  67  81 NW3       29.82R
RICHMOND +     CLEAR     64  64 100 S8        29.81F

$$

INZ060-061-067>069-081>083-085>088-240400-
SOUTHWEST INDIANA

CITY           SKY/WX    TMP DP  RH WIND       PRES   REMARKS
EVANSVILLE     CLEAR     79  71  76 CALM      29.87R
HUNTINGBURG *+ CLEAR     74  73  97 S3        29.87S

$$

INZ062-063-066-070>080-084-089>092-240400-
SOUTH CENTRAL AND SOUTHEAST INDIANA

CITY           SKY/WX    TMP DP  RH WIND       PRES   REMARKS
BLOOMINGTON    CLEAR     71  67  87 CALM      29.83F FOG
MADISON *+     CLEAR     72  70  94 CALM      29.88F
NORTH VERNON + CLEAR     70  68  94 CALM      29.86S

$$




USA.gov is the U.S. government's official web portal to all federal, state and local government web resources and services.